Time,TemperatureF,DewpointF,PressureIn,WindDirection,WindDirectionDegrees,WindSpeedMPH,WindSpeedGustMPH,Humidity,HourlyPrecipIn,Conditions,Clouds,dailyrainin,SolarRadiationWatts/m^2,SoftwareType,DateUTC
2013-06-26 00:02:00,56.5,54.8,29.83,SSW,196,0.0,0.0,94,0.00,,,0.00,0,Wunderground v.1.15,2013-06-26 07:02:00,
2013-06-26 00:07:00,56.6,54.9,29.83,SSW,196,0.0,0.0,94,0.00,,,0.00,0,Wunderground v.1.15,2013-06-26 07:07:00,
2013-06-26 00:12:00,56.6,54.9,29.83,SSW,196,0.0,0.0,94,0.00,,,0.00,0,Wunderground v.1.15,2013-06-26 07:12:00,
2013-06-26 00:18:00,56.6,54.9,29.83,SSW,196,0.0,0.0,94,0.00,,,0.00,0,Wunderground v.1.15,2013-06-26 07:18:00,
2013-06-26 00:23:00,56.7,55.0,29.83,SSW,196,0.0,0.0,94,0.00,,,0.00,0,Wunderground v.1.15,2013-06-26 07:23:00,
2013-06-26 00:28:00,56.7,55.0,29.83,SSW,196,0.0,0.0,94,0.00,,,0.00,0,Wunderground v.1.15,2013-06-26 07:28:00,
2013-06-26 00:33:00,56.7,55.0,29.83,SSW,196,0.0,0.0,94,0.00,,,0.00,0,Wunderground v.1.15,2013-06-26 07:33:00,
2013-06-26 00:38:00,56.9,55.2,29.83,SSW,196,0.0,0.0,94,0.00,,,0.00,0,Wunderground v.1.15,2013-06-26 07:38:00,
2013-06-26 00:44:00,56.9,55.2,29.83,SSW,196,0.0,0.0,94,0.00,,,0.00,0,Wunderground v.1.15,2013-06-26 07:44:00,
2013-06-26 00:49:00,56.9,55.2,29.83,SSW,196,0.0,0.0,94,0.00,,,0.00,0,Wunderground v.1.15,2013-06-26 07:49:00,
2013-06-26 00:54:00,56.9,55.2,29.83,SSE,163,1.0,1.0,94,0.00,,,0.00,0,Wunderground v.1.15,2013-06-26 07:54:00,
2013-06-26 00:59:00,56.9,55.2,29.83,SSE,163,0.0,1.0,94,0.00,,,0.00,0,Wunderground v.1.15,2013-06-26 07:59:00,
2013-06-26 01:04:00,56.7,55.0,29.83,SSE,165,0.0,1.0,94,0.00,,,0.00,0,Wunderground v.1.15,2013-06-26 08:04:00,
2013-06-26 01:10:00,56.7,55.0,29.83,East,88,1.0,1.0,94,0.00,,,0.00,0,Wunderground v.1.15,2013-06-26 08:10:00,
2013-06-26 01:15:00,56.7,55.0,29.83,SE,132,1.0,1.0,94,0.00,,,0.00,0,Wunderground v.1.15,2013-06-26 08:15:00,
2013-06-26 01:20:00,56.7,55.3,29.83,SE,138,1.0,1.0,95,0.00,,,0.00,0,Wunderground v.1.15,2013-06-26 08:20:00,
2013-06-26 01:25:00,56.7,55.3,29.83,SE,126,1.0,1.0,95,0.00,,,0.00,0,Wunderground v.1.15,2013-06-26 08:25:00,
2013-06-26 01:30:00,56.6,55.2,29.83,SE,126,1.0,1.0,95,0.00,,,0.00,0,Wunderground v.1.15,2013-06-26 08:30:00,
2013-06-26 01:36:00,56.6,55.2,29.83,SE,126,1.0,1.0,95,0.00,,,0.00,0,Wunderground v.1.15,2013-06-26 08:36:00,
2013-06-26 01:41:00,56.6,55.2,29.83,SE,126,1.0,1.0,95,0.00,,,0.00,0,Wunderground v.1.15,2013-06-26 08:41:00,
2013-06-26 01:46:00,56.6,55.2,29.83,SE,125,1.0,1.0,95,0.00,,,0.00,0,Wunderground v.1.15,2013-06-26 08:46:00,
2013-06-26 01:51:00,56.6,55.2,29.83,SE,126,2.0,2.0,95,0.00,,,0.00,0,Wunderground v.1.15,2013-06-26 08:51:00,
2013-06-26 01:56:00,56.6,55.2,29.83,SSE,153,2.0,2.0,95,0.00,,,0.00,0,Wunderground v.1.15,2013-06-26 08:56:00,
2013-06-26 02:01:00,56.6,55.2,29.83,SSE,159,1.0,2.0,95,0.00,,,0.00,0,Wunderground v.1.15,2013-06-26 09:01:00,
2013-06-26 02:06:00,56.6,55.2,29.83,South,184,2.0,4.0,95,0.00,,,0.00,0,Wunderground v.1.15,2013-06-26 09:06:00,
2013-06-26 02:11:00,56.7,55.3,29.83,SSW,209,1.0,2.0,95,0.00,,,0.00,0,Wunderground v.1.15,2013-06-26 09:11:00,
2013-06-26 02:16:00,56.7,55.3,29.83,SSW,209,0.0,2.0,95,0.00,,,0.00,0,Wunderground v.1.15,2013-06-26 09:16:00,
2013-06-26 02:21:00,56.9,55.5,29.83,SSW,209,1.0,2.0,95,0.00,,,0.00,0,Wunderground v.1.15,2013-06-26 09:21:00,
2013-06-26 02:26:00,56.9,55.5,29.83,SSW,209,1.0,2.0,95,0.00,,,0.00,0,Wunderground v.1.15,2013-06-26 09:26:00,
2013-06-26 02:31:00,56.9,55.5,29.83,SSW,209,1.0,2.0,95,0.00,,,0.00,0,Wunderground v.1.15,2013-06-26 09:31:00,
2013-06-26 02:36:00,56.9,55.5,29.83,SSW,209,0.0,2.0,95,0.00,,,0.00,0,Wunderground v.1.15,2013-06-26 09:36:00,
2013-06-26 02:41:00,57.0,55.6,29.83,SSW,209,0.0,2.0,95,0.00,,,0.00,0,Wunderground v.1.15,2013-06-26 09:41:00,
2013-06-26 02:46:00,57.0,55.6,29.84,SSW,209,0.0,2.0,95,0.00,,,0.00,0,Wunderground v.1.15,2013-06-26 09:46:00,
2013-06-26 02:51:00,57.0,55.6,29.84,SSW,209,0.0,1.0,95,0.00,,,0.00,0,Wunderground v.1.15,2013-06-26 09:51:00,
2013-06-26 02:56:00,57.0,55.6,29.84,SSW,209,0.0,2.0,95,0.00,,,0.00,0,Wunderground v.1.15,2013-06-26 09:56:00,
2013-06-26 03:01:00,57.0,55.6,29.84,SSW,209,0.0,1.0,95,0.00,,,0.00,0,Wunderground v.1.15,2013-06-26 10:01:00,
2013-06-26 03:06:00,57.2,55.8,29.84,SSW,207,0.0,2.0,95,0.00,,,0.01,0,Wunderground v.1.15,2013-06-26 10:06:00,
2013-06-26 03:11:00,57.2,56.1,29.84,SSW,212,0.0,3.0,96,0.00,,,0.01,0,Wunderground v.1.15,2013-06-26 10:11:00,
2013-06-26 03:16:00,57.2,56.1,29.84,SSW,212,1.0,3.0,96,0.00,,,0.01,0,Wunderground v.1.15,2013-06-26 10:16:00,
2013-06-26 03:21:00,57.2,56.1,29.84,SSW,212,0.0,0.0,96,0.00,,,0.01,0,Wunderground v.1.15,2013-06-26 10:21:00,
2013-06-26 03:26:00,57.3,56.2,29.84,SSW,212,1.0,1.0,96,0.00,,,0.01,0,Wunderground v.1.15,2013-06-26 10:26:00,
2013-06-26 03:31:00,57.3,56.2,29.84,SSW,194,0.0,1.0,96,0.00,,,0.01,0,Wunderground v.1.15,2013-06-26 10:31:00,
2013-06-26 03:36:00,57.3,56.2,29.84,ESE,119,2.0,2.0,96,0.00,,,0.01,0,Wunderground v.1.15,2013-06-26 10:36:00,
2013-06-26 03:41:00,57.3,56.2,29.84,ESE,119,1.0,1.0,96,0.00,,,0.01,0,Wunderground v.1.15,2013-06-26 10:41:00,
2013-06-26 03:46:00,57.3,56.2,29.85,SE,132,0.0,4.0,96,0.00,,,0.01,0,Wunderground v.1.15,2013-06-26 10:46:00,
2013-06-26 03:51:00,57.3,56.2,29.85,South,191,0.0,3.0,96,0.00,,,0.01,0,Wunderground v.1.15,2013-06-26 10:51:00,
2013-06-26 03:56:00,57.3,56.2,29.85,South,191,0.0,3.0,96,0.00,,,0.01,0,Wunderground v.1.15,2013-06-26 10:56:00,
2013-06-26 04:01:00,57.2,56.1,29.85,South,191,0.0,0.0,96,0.00,,,0.01,0,Wunderground v.1.15,2013-06-26 11:01:00,
2013-06-26 04:06:00,57.2,56.1,29.85,SE,139,1.0,4.0,96,0.00,,,0.01,0,Wunderground v.1.15,2013-06-26 11:06:00,
2013-06-26 04:11:00,57.0,55.9,29.85,SE,139,0.0,2.0,96,0.00,,,0.01,0,Wunderground v.1.15,2013-06-26 11:11:00,
2013-06-26 04:16:00,57.0,55.9,29.84,SE,139,1.0,2.0,96,0.00,,,0.01,0,Wunderground v.1.15,2013-06-26 11:16:00,
2013-06-26 04:21:00,57.0,55.9,29.84,SSW,213,0.0,1.0,96,0.00,,,0.01,0,Wunderground v.1.15,2013-06-26 11:21:00,
2013-06-26 04:26:00,57.0,55.9,29.84,SSW,213,0.0,1.0,96,0.00,,,0.01,0,Wunderground v.1.15,2013-06-26 11:26:00,
2013-06-26 04:31:00,57.0,55.9,29.84,SSW,213,0.0,0.0,96,0.00,,,0.01,0,Wunderground v.1.15,2013-06-26 11:31:00,
2013-06-26 04:36:00,57.0,55.9,29.84,SSW,213,0.0,1.0,96,0.00,,,0.01,0,Wunderground v.1.15,2013-06-26 11:36:00,
2013-06-26 04:41:00,57.0,55.9,29.84,SSW,213,0.0,0.0,96,0.00,,,0.01,0,Wunderground v.1.15,2013-06-26 11:41:00,
2013-06-26 04:46:00,57.0,55.9,29.85,SSW,213,0.0,0.0,96,0.00,,,0.01,0,Wunderground v.1.15,2013-06-26 11:46:00,
2013-06-26 04:51:00,57.0,55.9,29.85,SSW,213,1.0,1.0,96,0.00,,,0.01,0,Wunderground v.1.15,2013-06-26 11:51:00,
2013-06-26 04:56:00,57.0,55.9,29.85,SW,215,1.0,2.0,96,0.00,,,0.01,0,Wunderground v.1.15,2013-06-26 11:56:00,
2013-06-26 05:01:00,57.0,55.9,29.85,SW,215,0.0,1.0,96,0.00,,,0.01,0,Wunderground v.1.15,2013-06-26 12:01:00,
2013-06-26 05:06:00,57.0,55.9,29.85,SW,215,0.0,1.0,96,0.00,,,0.01,0,Wunderground v.1.15,2013-06-26 12:06:00,
2013-06-26 05:11:00,57.0,55.9,29.85,SW,215,0.0,1.0,96,0.00,,,0.01,0,Wunderground v.1.15,2013-06-26 12:11:00,
2013-06-26 05:16:00,57.0,55.9,29.85,SW,215,0.0,2.0,96,0.00,,,0.01,0,Wunderground v.1.15,2013-06-26 12:16:00,
2013-06-26 05:21:00,57.0,55.9,29.85,SW,215,0.0,1.0,96,0.00,,,0.01,0,Wunderground v.1.15,2013-06-26 12:21:00,
2013-06-26 05:26:00,57.0,55.9,29.85,SW,215,0.0,2.0,96,0.00,,,0.01,0,Wunderground v.1.15,2013-06-26 12:26:00,
2013-06-26 05:31:00,57.0,55.9,29.85,SW,215,0.0,0.0,96,0.00,,,0.01,0,Wunderground v.1.15,2013-06-26 12:31:00,
2013-06-26 05:36:00,57.0,55.9,29.85,SW,215,0.0,1.0,96,0.00,,,0.01,5,Wunderground v.1.15,2013-06-26 12:36:00,
2013-06-26 05:42:00,57.0,55.9,29.85,SW,215,0.0,1.0,96,0.00,,,0.01,5,Wunderground v.1.15,2013-06-26 12:42:00,
2013-06-26 05:47:00,57.0,55.9,29.86,SW,215,0.0,1.0,96,0.00,,,0.01,5,Wunderground v.1.15,2013-06-26 12:47:00,
2013-06-26 05:52:00,57.0,55.9,29.86,West,271,0.0,1.0,96,0.00,,,0.02,5,Wunderground v.1.15,2013-06-26 12:52:00,
2013-06-26 05:57:00,57.0,55.9,29.86,West,271,0.0,1.0,96,0.00,,,0.02,7,Wunderground v.1.15,2013-06-26 12:57:00,
2013-06-26 06:02:00,57.0,55.9,29.85,West,272,0.0,0.0,96,0.00,,,0.02,9,Wunderground v.1.15,2013-06-26 13:02:00,
2013-06-26 06:07:00,57.0,55.9,29.85,West,271,0.0,1.0,96,0.00,,,0.02,11,Wunderground v.1.15,2013-06-26 13:07:00,
2013-06-26 06:12:00,57.2,56.1,29.85,West,271,0.0,1.0,96,0.00,,,0.02,9,Wunderground v.1.15,2013-06-26 13:12:00,
2013-06-26 06:17:00,57.2,56.1,29.86,West,271,0.0,1.0,96,0.00,,,0.02,11,Wunderground v.1.15,2013-06-26 13:17:00,
2013-06-26 06:22:00,57.2,56.1,29.86,West,271,0.0,0.0,96,0.00,,,0.02,19,Wunderground v.1.15,2013-06-26 13:22:00,
2013-06-26 06:27:00,57.2,56.1,29.86,West,271,0.0,0.0,96,0.00,,,0.02,12,Wunderground v.1.15,2013-06-26 13:27:00,
2013-06-26 06:32:00,57.2,56.1,29.87,West,271,0.0,0.0,96,0.00,,,0.02,7,Wunderground v.1.15,2013-06-26 13:32:00,
2013-06-26 06:37:00,57.3,56.2,29.87,West,271,0.0,0.0,96,0.00,,,0.02,12,Wunderground v.1.15,2013-06-26 13:37:00,
2013-06-26 06:42:00,57.3,56.2,29.87,West,271,0.0,0.0,96,0.00,,,0.02,25,Wunderground v.1.15,2013-06-26 13:42:00,
2013-06-26 06:47:00,57.3,56.2,29.87,West,271,0.0,0.0,96,0.00,,,0.02,16,Wunderground v.1.15,2013-06-26 13:47:00,
2013-06-26 06:52:00,57.3,56.2,29.87,West,271,0.0,0.0,96,0.00,,,0.02,28,Wunderground v.1.15,2013-06-26 13:52:00,
2013-06-26 06:57:00,57.5,56.4,29.87,West,271,0.0,0.0,96,0.00,,,0.02,60,Wunderground v.1.15,2013-06-26 13:57:00,
2013-06-26 07:02:00,57.6,56.8,29.86,West,271,0.0,0.0,97,0.00,,,0.02,46,Wunderground v.1.15,2013-06-26 14:02:00,
2013-06-26 07:07:00,57.8,57.0,29.86,West,271,0.0,0.0,97,0.00,,,0.02,77,Wunderground v.1.15,2013-06-26 14:07:00,
2013-06-26 07:12:00,58.0,57.2,29.86,West,271,0.0,0.0,97,0.00,,,0.03,77,Wunderground v.1.15,2013-06-26 14:12:00,
2013-06-26 07:17:00,58.0,57.2,29.87,West,272,0.0,1.0,97,0.00,,,0.03,72,Wunderground v.1.15,2013-06-26 14:17:00,
2013-06-26 07:22:00,58.1,57.3,29.87,West,271,0.0,0.0,97,0.00,,,0.03,63,Wunderground v.1.15,2013-06-26 14:22:00,
2013-06-26 07:27:00,58.1,57.3,29.87,West,271,0.0,0.0,97,0.00,,,0.03,32,Wunderground v.1.15,2013-06-26 14:27:00,
2013-06-26 07:32:00,58.1,57.3,29.87,West,271,0.0,0.0,97,0.00,,,0.03,25,Wunderground v.1.15,2013-06-26 14:32:00,
2013-06-26 07:37:00,58.1,57.0,29.87,West,271,0.0,0.0,96,0.00,,,0.03,46,Wunderground v.1.15,2013-06-26 14:37:00,
2013-06-26 07:42:00,58.0,56.9,29.87,West,271,0.0,0.0,96,0.00,,,0.03,33,Wunderground v.1.15,2013-06-26 14:42:00,
2013-06-26 07:47:00,58.0,56.9,29.88,West,271,0.0,0.0,96,0.00,,,0.03,37,Wunderground v.1.15,2013-06-26 14:47:00,
2013-06-26 07:52:00,58.0,56.9,29.88,West,271,0.0,0.0,96,0.00,,,0.03,33,Wunderground v.1.15,2013-06-26 14:52:00,
2013-06-26 07:57:00,58.0,57.2,29.88,West,260,2.0,2.0,97,0.00,,,0.03,70,Wunderground v.1.15,2013-06-26 14:57:00,
2013-06-26 08:02:00,58.0,57.2,29.88,WSW,240,0.0,1.0,97,0.00,,,0.03,58,Wunderground v.1.15,2013-06-26 15:02:00,
2013-06-26 08:07:00,58.1,57.3,29.88,WSW,240,0.0,1.0,97,0.00,,,0.03,51,Wunderground v.1.15,2013-06-26 15:07:00,
2013-06-26 08:12:00,58.3,57.5,29.88,WSW,240,0.0,0.0,97,0.00,,,0.03,81,Wunderground v.1.15,2013-06-26 15:12:00,
2013-06-26 08:17:00,58.3,57.5,29.88,WSW,240,0.0,0.0,97,0.00,,,0.03,88,Wunderground v.1.15,2013-06-26 15:17:00,
2013-06-26 08:22:00,58.6,57.8,29.88,WSW,240,0.0,0.0,97,0.00,,,0.03,111,Wunderground v.1.15,2013-06-26 15:22:00,
2013-06-26 08:27:00,58.7,57.9,29.88,WSW,240,0.0,0.0,97,0.00,,,0.03,77,Wunderground v.1.15,2013-06-26 15:27:00,
2013-06-26 08:32:00,58.9,58.1,29.89,WSW,240,0.0,0.0,97,0.00,,,0.03,90,Wunderground v.1.15,2013-06-26 15:32:00,
2013-06-26 08:37:00,59.0,58.2,29.89,ENE,69,0.0,3.0,97,0.00,,,0.03,120,Wunderground v.1.15,2013-06-26 15:37:00,
2013-06-26 08:42:00,59.2,58.3,29.89,ENE,69,0.0,0.0,97,0.00,,,0.03,63,Wunderground v.1.15,2013-06-26 15:42:00,
2013-06-26 08:47:00,59.2,58.3,29.89,ENE,69,0.0,1.0,97,0.00,,,0.03,100,Wunderground v.1.15,2013-06-26 15:47:00,
2013-06-26 08:52:00,59.3,58.4,29.89,ENE,69,0.0,1.0,97,0.00,,,0.03,93,Wunderground v.1.15,2013-06-26 15:52:00,
2013-06-26 08:57:00,59.3,58.4,29.89,ENE,69,1.0,2.0,97,0.00,,,0.03,121,Wunderground v.1.15,2013-06-26 15:57:00,
2013-06-26 09:02:00,59.3,58.4,29.89,ENE,69,0.0,1.0,97,0.00,,,0.03,134,Wunderground v.1.15,2013-06-26 16:02:00,
2013-06-26 09:07:00,59.5,58.6,29.89,ENE,69,1.0,2.0,97,0.00,,,0.03,160,Wunderground v.1.15,2013-06-26 16:07:00,
2013-06-26 09:12:00,59.6,58.7,29.89,ENE,69,0.0,0.0,97,0.00,,,0.03,155,Wunderground v.1.15,2013-06-26 16:12:00,
2013-06-26 09:17:00,59.6,58.7,29.90,ENE,69,0.0,1.0,97,0.00,,,0.03,132,Wunderground v.1.15,2013-06-26 16:17:00,
2013-06-26 09:22:00,59.8,58.9,29.90,ENE,69,0.0,0.0,97,0.00,,,0.03,153,Wunderground v.1.15,2013-06-26 16:22:00,
2013-06-26 09:27:00,59.8,58.9,29.90,ENE,69,0.0,1.0,97,0.00,,,0.03,151,Wunderground v.1.15,2013-06-26 16:27:00,
2013-06-26 09:32:00,59.9,59.0,29.90,ENE,69,0.0,1.0,97,0.00,,,0.03,158,Wunderground v.1.15,2013-06-26 16:32:00,
2013-06-26 09:37:00,60.1,59.2,29.90,ENE,69,0.0,1.0,97,0.00,,,0.03,181,Wunderground v.1.15,2013-06-26 16:37:00,
2013-06-26 09:42:00,60.1,59.2,29.90,ENE,69,0.0,0.0,97,0.00,,,0.03,179,Wunderground v.1.15,2013-06-26 16:42:00,
2013-06-26 09:47:00,60.2,59.3,29.91,ENE,69,0.0,1.0,97,0.00,,,0.03,220,Wunderground v.1.15,2013-06-26 16:47:00,
2013-06-26 09:52:00,60.2,59.3,29.91,ENE,71,0.0,2.0,97,0.00,,,0.03,127,Wunderground v.1.15,2013-06-26 16:52:00,
2013-06-26 09:57:00,60.2,59.3,29.91,ENE,71,0.0,2.0,97,0.00,,,0.03,267,Wunderground v.1.15,2013-06-26 16:57:00,
2013-06-26 10:02:00,60.5,59.6,29.91,ENE,71,0.0,3.0,97,0.00,,,0.03,229,Wunderground v.1.15,2013-06-26 17:02:00,
2013-06-26 10:07:00,60.7,59.8,29.91,ENE,71,0.0,3.0,97,0.00,,,0.03,200,Wunderground v.1.15,2013-06-26 17:07:00,
2013-06-26 10:12:00,61.0,60.1,29.91,NE,56,0.0,1.0,97,0.00,,,0.03,155,Wunderground v.1.15,2013-06-26 17:12:00,
2013-06-26 10:17:00,61.0,60.1,29.91,ENE,65,0.0,1.0,97,0.00,,,0.03,169,Wunderground v.1.15,2013-06-26 17:17:00,
2013-06-26 10:22:00,61.0,60.1,29.91,ENE,65,0.0,0.0,97,0.00,,,0.03,123,Wunderground v.1.15,2013-06-26 17:22:00,
2013-06-26 10:27:00,61.2,60.3,29.91,ENE,64,0.0,1.0,97,0.00,,,0.03,98,Wunderground v.1.15,2013-06-26 17:27:00,
2013-06-26 10:32:00,60.9,59.8,29.91,ENE,65,0.0,1.0,96,0.00,,,0.03,128,Wunderground v.1.15,2013-06-26 17:32:00,
2013-06-26 10:37:00,60.5,59.4,29.91,ENE,65,0.0,2.0,96,0.00,,,0.03,127,Wunderground v.1.15,2013-06-26 17:37:00,
2013-06-26 10:42:00,60.5,59.4,29.91,ENE,65,0.0,1.0,96,0.00,,,0.03,118,Wunderground v.1.15,2013-06-26 17:42:00,
2013-06-26 10:47:00,60.5,59.4,29.91,ENE,65,0.0,1.0,96,0.00,,,0.03,105,Wunderground v.1.15,2013-06-26 17:47:00,
2013-06-26 10:52:00,60.4,59.3,29.91,ENE,65,0.0,1.0,96,0.00,,,0.03,54,Wunderground v.1.15,2013-06-26 17:52:00,
2013-06-26 10:57:00,60.5,59.4,29.91,NNE,28,0.0,2.0,96,0.00,,,0.03,181,Wunderground v.1.15,2013-06-26 17:57:00,
2013-06-26 11:02:00,60.7,59.6,29.91,NE,42,0.0,0.0,96,0.00,,,0.03,174,Wunderground v.1.15,2013-06-26 18:02:00,
2013-06-26 11:07:00,61.0,59.9,29.91,East,90,1.0,2.0,96,0.00,,,0.03,230,Wunderground v.1.15,2013-06-26 18:07:00,
2013-06-26 11:12:00,60.9,59.8,29.91,East,90,0.0,2.0,96,0.00,,,0.03,276,Wunderground v.1.15,2013-06-26 18:12:00,
2013-06-26 11:17:00,61.3,60.2,29.92,East,90,0.0,2.0,96,0.00,,,0.03,406,Wunderground v.1.15,2013-06-26 18:17:00,
2013-06-26 11:22:00,61.8,60.6,29.92,SE,128,0.0,2.0,96,0.00,,,0.03,216,Wunderground v.1.15,2013-06-26 18:22:00,
2013-06-26 11:27:00,62.1,60.9,29.92,SE,128,0.0,2.0,96,0.00,,,0.03,151,Wunderground v.1.15,2013-06-26 18:27:00,
2013-06-26 11:32:00,62.1,60.7,29.93,SE,128,0.0,1.0,95,0.00,,,0.03,95,Wunderground v.1.15,2013-06-26 18:32:00,
2013-06-26 11:37:00,62.3,60.8,29.93,SE,128,0.0,1.0,95,0.58,,,0.12,60,Wunderground v.1.15,2013-06-26 18:37:00,
2013-06-26 11:42:00,62.3,60.8,29.93,SE,128,0.0,0.0,95,0.13,,,0.13,111,Wunderground v.1.15,2013-06-26 18:42:00,
2013-06-26 11:47:00,62.3,60.8,29.93,SE,128,0.0,0.0,95,0.08,,,0.14,195,Wunderground v.1.15,2013-06-26 18:47:00,
2013-06-26 11:52:00,62.4,60.9,29.93,SE,128,0.0,1.0,95,0.08,,,0.14,190,Wunderground v.1.15,2013-06-26 18:52:00,
2013-06-26 11:57:00,62.6,61.1,29.93,SE,128,0.0,1.0,95,0.05,,,0.14,246,Wunderground v.1.15,2013-06-26 18:57:00,
2013-06-26 12:02:00,62.9,61.4,29.93,SE,128,0.0,0.0,95,0.04,,,0.14,241,Wunderground v.1.15,2013-06-26 19:02:00,
2013-06-26 12:07:00,63.1,61.6,29.93,SE,128,0.0,1.0,95,0.00,,,0.14,272,Wunderground v.1.15,2013-06-26 19:07:00,
2013-06-26 12:12:00,63.2,61.7,29.93,SE,128,0.0,1.0,95,0.00,,,0.14,292,Wunderground v.1.15,2013-06-26 19:12:00,
2013-06-26 12:17:00,63.7,62.5,29.93,SE,128,1.0,2.0,96,0.00,,,0.14,563,Wunderground v.1.15,2013-06-26 19:17:00,
2013-06-26 12:22:00,64.0,62.5,29.93,SE,128,0.0,2.0,95,0.00,,,0.14,399,Wunderground v.1.15,2013-06-26 19:22:00,
2013-06-26 12:27:00,64.5,63.3,29.93,SE,128,0.0,2.0,96,0.00,,,0.14,432,Wunderground v.1.15,2013-06-26 19:27:00,
2013-06-26 12:32:00,64.8,63.6,29.94,SE,128,0.0,2.0,96,0.00,,,0.14,425,Wunderground v.1.15,2013-06-26 19:32:00,
2013-06-26 12:37:00,65.2,64.0,29.94,SE,128,0.0,2.0,96,0.00,,,0.14,547,Wunderground v.1.15,2013-06-26 19:37:00,
2013-06-26 12:42:00,65.6,64.4,29.94,East,98,0.0,4.0,96,0.00,,,0.14,575,Wunderground v.1.15,2013-06-26 19:42:00,
2013-06-26 12:47:00,66.0,64.5,29.93,SE,132,2.0,4.0,95,0.00,,,0.14,752,Wunderground v.1.15,2013-06-26 19:47:00,
2013-06-26 12:52:00,65.8,64.3,29.93,East,89,1.0,3.0,95,0.00,,,0.14,752,Wunderground v.1.15,2013-06-26 19:52:00,
2013-06-26 12:57:00,65.6,63.8,29.93,ENE,68,2.0,4.0,94,0.00,,,0.14,752,Wunderground v.1.15,2013-06-26 19:57:00,
2013-06-26 13:02:00,65.2,63.1,29.94,NE,49,3.0,4.0,93,0.00,,,0.14,464,Wunderground v.1.15,2013-06-26 20:02:00,
2013-06-26 13:07:00,65.2,63.1,29.94,North,5,1.0,5.0,93,0.00,,,0.14,526,Wunderground v.1.15,2013-06-26 20:07:00,
2013-06-26 13:08:00,65.2,63.1,29.94,East,101,2.0,5.0,93,0.00,,,0.14,526,Wunderground v.1.15,2013-06-26 20:08:00,
2013-06-26 13:13:00,65.2,62.8,29.94,ENE,77,0.0,6.0,92,0.00,,,0.14,693,Wunderground v.1.15,2013-06-26 20:13:00,
2013-06-26 13:18:00,65.5,63.1,29.95,ENE,57,1.0,6.0,92,0.00,,,0.14,722,Wunderground v.1.15,2013-06-26 20:18:00,
2013-06-26 13:23:00,65.3,62.3,29.95,NE,56,0.0,4.0,90,0.00,,,0.14,274,Wunderground v.1.15,2013-06-26 20:23:00,
2013-06-26 13:28:00,65.3,62.3,29.95,NE,56,1.0,4.0,90,0.00,,,0.14,352,Wunderground v.1.15,2013-06-26 20:28:00,
2013-06-26 13:33:00,65.2,61.9,29.95,ENE,65,0.0,2.0,89,0.00,,,0.14,308,Wunderground v.1.15,2013-06-26 20:33:00,
2013-06-26 13:38:00,65.0,61.4,29.95,ESE,121,0.0,3.0,88,0.00,,,0.14,357,Wunderground v.1.15,2013-06-26 20:38:00,
2013-06-26 13:43:00,64.8,60.8,29.95,ESE,120,0.0,2.0,87,0.00,,,0.14,246,Wunderground v.1.15,2013-06-26 20:43:00,
2013-06-26 13:48:00,64.8,60.8,29.95,ESE,112,2.0,4.0,87,0.00,,,0.14,272,Wunderground v.1.15,2013-06-26 20:48:00,
2013-06-26 13:53:00,64.8,60.8,29.95,ESE,122,1.0,5.0,87,0.00,,,0.14,297,Wunderground v.1.15,2013-06-26 20:53:00,
2013-06-26 13:58:00,65.0,60.7,29.95,East,84,2.0,5.0,86,0.00,,,0.14,480,Wunderground v.1.15,2013-06-26 20:58:00,
2013-06-26 14:03:00,65.3,61.3,29.96,East,101,0.0,3.0,87,0.00,,,0.14,432,Wunderground v.1.15,2013-06-26 21:03:00,
2013-06-26 14:08:00,65.5,61.2,29.96,ESE,119,0.0,4.0,86,0.00,,,0.14,269,Wunderground v.1.15,2013-06-26 21:08:00,
2013-06-26 14:13:00,65.6,61.3,29.96,East,98,0.0,6.0,86,0.00,,,0.14,977,Wunderground v.1.15,2013-06-26 21:13:00,
2013-06-26 14:18:00,66.3,62.3,29.96,ENE,63,0.0,6.0,87,0.00,,,0.14,737,Wunderground v.1.15,2013-06-26 21:18:00,
2013-06-26 14:23:00,66.6,62.6,29.96,SSW,202,0.0,4.0,87,0.00,,,0.14,963,Wunderground v.1.15,2013-06-26 21:23:00,
2013-06-26 14:28:00,66.8,61.8,29.96,ENE,71,1.0,7.0,84,0.00,,,0.14,420,Wunderground v.1.15,2013-06-26 21:28:00,
2013-06-26 14:33:00,66.4,60.7,29.96,South,171,1.0,6.0,82,0.00,,,0.14,353,Wunderground v.1.15,2013-06-26 21:33:00,
2013-06-26 14:38:00,66.6,60.9,29.96,East,101,1.0,6.0,82,0.00,,,0.14,301,Wunderground v.1.15,2013-06-26 21:38:00,
2013-06-26 14:43:00,66.9,61.2,29.96,ENE,66,0.0,4.0,82,0.00,,,0.14,301,Wunderground v.1.15,2013-06-26 21:43:00,
2013-06-26 14:48:00,66.6,60.2,29.96,East,91,0.0,6.0,80,0.00,,,0.14,230,Wunderground v.1.15,2013-06-26 21:48:00,
2013-06-26 14:53:00,66.6,60.6,29.96,ENE,63,0.0,4.0,81,0.00,,,0.14,156,Wunderground v.1.15,2013-06-26 21:53:00,
2013-06-26 14:58:00,66.4,60.0,29.96,ESE,119,0.0,4.0,80,0.00,,,0.14,69,Wunderground v.1.15,2013-06-26 21:58:00,
2013-06-26 15:03:00,66.3,59.9,29.97,SSW,196,2.0,4.0,80,0.00,,,0.14,32,Wunderground v.1.15,2013-06-26 22:03:00,
2013-06-26 15:08:00,66.1,60.4,29.97,ENE,73,0.0,4.0,82,0.31,,,0.26,67,Wunderground v.1.15,2013-06-26 22:08:00,
2013-06-26 15:13:00,66.0,60.7,29.97,WSW,242,0.0,4.0,83,0.28,,,0.28,90,Wunderground v.1.15,2013-06-26 22:13:00,
2013-06-26 15:18:00,65.8,60.8,29.98,WSW,242,0.0,4.0,84,0.15,,,0.29,120,Wunderground v.1.15,2013-06-26 22:18:00,
2013-06-26 15:23:00,65.6,61.0,29.98,NE,42,0.0,2.0,85,0.14,,,0.30,193,Wunderground v.1.15,2013-06-26 22:23:00,
2013-06-26 15:29:00,65.5,61.2,29.98,East,81,3.0,3.0,86,0.07,,,0.30,190,Wunderground v.1.15,2013-06-26 22:29:00,
2013-06-26 15:34:00,65.5,61.5,29.98,East,79,0.0,1.0,87,0.04,,,0.30,315,Wunderground v.1.15,2013-06-26 22:34:00,
2013-06-26 15:39:00,65.6,61.9,29.98,East,80,0.0,1.0,88,0.00,,,0.30,302,Wunderground v.1.15,2013-06-26 22:39:00,
2013-06-26 15:44:00,65.8,62.5,29.98,ESE,105,0.0,3.0,89,0.00,,,0.30,315,Wunderground v.1.15,2013-06-26 22:44:00,
2013-06-26 15:49:00,65.8,62.5,29.98,ESE,105,0.0,3.0,89,0.00,,,0.30,290,Wunderground v.1.15,2013-06-26 22:49:00,
2013-06-26 15:54:00,66.0,63.0,29.98,ESE,103,0.0,2.0,90,0.00,,,0.30,299,Wunderground v.1.15,2013-06-26 22:54:00,
2013-06-26 15:59:00,66.3,63.3,29.98,ESE,103,0.0,2.0,90,0.00,,,0.30,330,Wunderground v.1.15,2013-06-26 22:59:00,
2013-06-26 16:04:00,66.3,63.3,29.98,East,101,0.0,4.0,90,0.00,,,0.30,288,Wunderground v.1.15,2013-06-26 23:04:00,
2013-06-26 16:09:00,66.4,63.4,29.98,SW,227,0.0,4.0,90,0.00,,,0.30,359,Wunderground v.1.15,2013-06-26 23:09:00,
2013-06-26 16:14:00,66.4,63.4,29.98,SW,223,0.0,2.0,90,0.00,,,0.30,278,Wunderground v.1.15,2013-06-26 23:14:00,
2013-06-26 16:19:00,66.6,63.6,29.98,South,173,0.0,6.0,90,0.00,,,0.30,246,Wunderground v.1.15,2013-06-26 23:19:00,
2013-06-26 16:24:00,66.8,63.8,29.98,South,173,0.0,2.0,90,0.00,,,0.30,227,Wunderground v.1.15,2013-06-26 23:24:00,
2013-06-26 16:29:00,66.8,63.8,29.98,South,173,0.0,4.0,90,0.00,,,0.30,213,Wunderground v.1.15,2013-06-26 23:29:00,
2013-06-26 16:34:00,66.9,63.9,29.99,South,173,0.0,0.0,90,0.00,,,0.30,220,Wunderground v.1.15,2013-06-26 23:34:00,
2013-06-26 16:39:00,67.1,64.1,29.99,South,173,0.0,1.0,90,0.00,,,0.30,271,Wunderground v.1.15,2013-06-26 23:39:00,
2013-06-26 16:44:00,67.3,64.6,29.99,NE,40,0.0,3.0,91,0.00,,,0.30,234,Wunderground v.1.15,2013-06-26 23:44:00,
2013-06-26 16:49:00,67.1,64.1,29.99,NE,40,0.0,3.0,90,0.00,,,0.30,223,Wunderground v.1.15,2013-06-26 23:49:00,
2013-06-26 16:54:00,66.8,63.5,29.99,NE,40,0.0,1.0,89,0.00,,,0.30,179,Wunderground v.1.15,2013-06-26 23:54:00,
2013-06-26 16:59:00,66.3,62.6,29.99,East,84,0.0,2.0,88,0.00,,,0.30,167,Wunderground v.1.15,2013-06-26 23:59:00,
2013-06-26 17:04:00,66.3,63.0,29.99,East,84,0.0,0.0,89,0.00,,,0.30,169,Wunderground v.1.15,2013-06-27 00:04:00,
2013-06-26 17:09:00,66.4,63.1,29.99,East,84,0.0,1.0,89,0.00,,,0.30,146,Wunderground v.1.15,2013-06-27 00:09:00,
2013-06-26 17:14:00,66.4,63.1,29.99,East,84,0.0,1.0,89,0.00,,,0.30,144,Wunderground v.1.15,2013-06-27 00:14:00,
2013-06-26 17:19:00,66.4,62.7,29.99,ESE,105,0.0,3.0,88,0.00,,,0.30,90,Wunderground v.1.15,2013-06-27 00:19:00,
2013-06-26 17:24:00,66.3,62.6,29.99,ESE,105,1.0,1.0,88,0.00,,,0.30,54,Wunderground v.1.15,2013-06-27 00:24:00,
2013-06-26 17:29:00,65.8,61.5,29.99,ESE,105,1.0,4.0,86,0.00,,,0.30,79,Wunderground v.1.15,2013-06-27 00:29:00,
2013-06-26 17:34:00,65.5,61.2,30.00,SSE,159,0.0,4.0,86,0.00,,,0.30,77,Wunderground v.1.15,2013-06-27 00:34:00,
2013-06-26 17:39:00,65.3,60.7,30.00,South,186,1.0,5.0,85,0.00,,,0.30,79,Wunderground v.1.15,2013-06-27 00:39:00,
2013-06-26 17:44:00,65.2,60.9,30.00,South,186,0.0,2.0,86,0.00,,,0.30,120,Wunderground v.1.15,2013-06-27 00:44:00,
2013-06-26 17:49:00,65.3,61.3,30.00,SSW,212,0.0,2.0,87,0.00,,,0.30,125,Wunderground v.1.15,2013-06-27 00:49:00,
2013-06-26 17:54:00,65.3,61.3,30.00,SSW,204,0.0,2.0,87,0.00,,,0.30,70,Wunderground v.1.15,2013-06-27 00:54:00,
2013-06-26 17:59:00,65.3,61.3,30.00,SSW,195,0.0,6.0,87,0.00,,,0.30,60,Wunderground v.1.15,2013-06-27 00:59:00,
2013-06-26 18:04:00,65.2,60.9,30.00,NE,44,1.0,4.0,86,0.00,,,0.30,42,Wunderground v.1.15,2013-06-27 01:04:00,
2013-06-26 18:09:00,65.0,60.4,30.00,South,173,1.0,5.0,85,0.00,,,0.30,35,Wunderground v.1.15,2013-06-27 01:09:00,
2013-06-26 18:14:00,64.7,59.8,30.00,North,11,0.0,5.0,84,0.00,,,0.30,37,Wunderground v.1.15,2013-06-27 01:14:00,
2013-06-26 18:19:00,64.7,59.4,30.00,South,186,0.0,5.0,83,0.00,,,0.30,56,Wunderground v.1.15,2013-06-27 01:19:00,
2013-06-26 18:24:00,64.8,59.9,30.00,SW,229,0.0,2.0,84,0.00,,,0.30,47,Wunderground v.1.15,2013-06-27 01:24:00,
2013-06-26 18:29:00,64.8,59.9,30.00,SSW,198,2.0,4.0,84,0.00,,,0.30,42,Wunderground v.1.15,2013-06-27 01:29:00,
2013-06-26 18:34:00,64.8,59.9,30.01,South,184,2.0,3.0,84,0.00,,,0.30,37,Wunderground v.1.15,2013-06-27 01:34:00,
2013-06-26 18:39:00,64.8,59.9,30.01,South,186,0.0,4.0,84,0.00,,,0.30,30,Wunderground v.1.15,2013-06-27 01:39:00,
2013-06-26 18:44:00,64.7,59.8,30.01,SSW,205,0.0,5.0,84,0.00,,,0.30,32,Wunderground v.1.15,2013-06-27 01:44:00,
2013-06-26 18:49:00,64.3,58.7,30.02,South,188,1.0,6.0,82,0.00,,,0.30,44,Wunderground v.1.15,2013-06-27 01:49:00,
2013-06-26 18:54:00,64.3,58.7,30.02,NE,36,1.0,3.0,82,0.00,,,0.30,32,Wunderground v.1.15,2013-06-27 01:54:00,
2013-06-26 18:59:00,64.3,59.0,30.02,SSW,196,0.0,4.0,83,0.00,,,0.30,30,Wunderground v.1.15,2013-06-27 01:59:00,
2013-06-26 19:04:00,64.2,58.9,30.02,ESE,117,0.0,1.0,83,0.00,,,0.30,39,Wunderground v.1.15,2013-06-27 02:04:00,
2013-06-26 19:09:00,64.2,58.9,30.02,ENE,78,1.0,3.0,83,0.00,,,0.30,42,Wunderground v.1.15,2013-06-27 02:09:00,
2013-06-26 19:14:00,64.0,58.7,30.02,ENE,78,0.0,2.0,83,0.00,,,0.30,46,Wunderground v.1.15,2013-06-27 02:14:00,
2013-06-26 19:19:00,63.9,58.6,30.02,ENE,59,0.0,2.0,83,0.00,,,0.30,49,Wunderground v.1.15,2013-06-27 02:19:00,
2013-06-26 19:24:00,63.7,58.4,30.02,WSW,243,0.0,3.0,83,0.00,,,0.30,54,Wunderground v.1.15,2013-06-27 02:24:00,
2013-06-26 19:29:00,63.7,58.8,30.02,ESE,111,0.0,3.0,84,0.00,,,0.30,56,Wunderground v.1.15,2013-06-27 02:29:00,
2013-06-26 19:34:00,63.9,59.0,30.02,NE,34,0.0,4.0,84,0.00,,,0.30,53,Wunderground v.1.15,2013-06-27 02:34:00,
2013-06-26 19:39:00,63.7,59.1,30.02,North,351,0.0,4.0,85,0.00,,,0.30,40,Wunderground v.1.15,2013-06-27 02:39:00,
2013-06-26 19:44:00,63.7,59.1,30.02,NNW,348,0.0,1.0,85,0.00,,,0.30,37,Wunderground v.1.15,2013-06-27 02:44:00,
2013-06-26 19:49:00,63.5,58.9,30.02,SSE,161,1.0,1.0,85,0.00,,,0.30,47,Wunderground v.1.15,2013-06-27 02:49:00,
2013-06-26 19:54:00,63.4,58.8,30.02,SSE,161,0.0,1.0,85,0.00,,,0.30,47,Wunderground v.1.15,2013-06-27 02:54:00,
2013-06-26 19:59:00,63.4,58.8,30.02,SSE,161,0.0,1.0,85,0.00,,,0.30,39,Wunderground v.1.15,2013-06-27 02:59:00,
2013-06-26 20:04:00,63.4,58.8,30.02,SSE,161,0.0,0.0,85,0.00,,,0.30,40,Wunderground v.1.15,2013-06-27 03:04:00,
2013-06-26 20:09:00,63.4,58.8,30.02,SSE,161,0.0,2.0,85,0.00,,,0.30,37,Wunderground v.1.15,2013-06-27 03:09:00,
2013-06-26 20:14:00,63.2,58.9,30.02,SSE,161,0.0,1.0,86,0.00,,,0.30,30,Wunderground v.1.15,2013-06-27 03:14:00,
2013-06-26 20:19:00,63.1,58.5,30.02,SSE,161,0.0,1.0,85,0.00,,,0.30,23,Wunderground v.1.15,2013-06-27 03:19:00,
2013-06-26 20:24:00,63.1,58.8,30.02,SSE,161,0.0,0.0,86,0.00,,,0.30,18,Wunderground v.1.15,2013-06-27 03:24:00,
2013-06-26 20:29:00,62.9,58.6,30.02,SSE,161,0.0,1.0,86,0.00,,,0.30,16,Wunderground v.1.15,2013-06-27 03:29:00,
2013-06-26 20:34:00,62.7,58.5,30.02,NW,322,0.0,2.0,86,0.00,,,0.30,19,Wunderground v.1.15,2013-06-27 03:34:00,
2013-06-26 20:39:00,62.6,58.0,30.02,ENE,59,0.0,2.0,85,0.00,,,0.30,14,Wunderground v.1.15,2013-06-27 03:39:00,
2013-06-26 20:44:00,62.4,57.8,30.02,ENE,59,0.0,1.0,85,0.00,,,0.30,14,Wunderground v.1.15,2013-06-27 03:44:00,
2013-06-26 20:49:00,62.3,57.4,30.03,ENE,69,0.0,1.0,84,0.00,,,0.30,11,Wunderground v.1.15,2013-06-27 03:49:00,
2013-06-26 20:54:00,62.1,57.2,30.03,ENE,69,0.0,2.0,84,0.00,,,0.30,9,Wunderground v.1.15,2013-06-27 03:54:00,
2013-06-26 20:59:00,62.0,56.8,30.03,ENE,69,0.0,2.0,83,0.00,,,0.30,5,Wunderground v.1.15,2013-06-27 03:59:00,
2013-06-26 21:01:00,62.0,56.8,30.04,ENE,69,0.0,1.0,83,0.00,,,0.30,5,Wunderground v.1.15,2013-06-27 04:01:00,
2013-06-26 21:02:00,62.0,56.8,30.04,ENE,69,0.0,1.0,83,0.00,,,0.30,5,Wunderground v.1.15,2013-06-27 04:02:00,
2013-06-26 21:07:00,61.8,56.6,30.04,ENE,76,1.0,2.0,83,0.00,,,0.30,0,Wunderground v.1.15,2013-06-27 04:07:00,
2013-06-26 21:12:00,61.8,56.6,30.04,ENE,76,0.0,0.0,83,0.00,,,0.30,0,Wunderground v.1.15,2013-06-27 04:12:00,
2013-06-26 21:17:00,61.8,56.6,30.04,ENE,76,0.0,1.0,83,0.00,,,0.30,0,Wunderground v.1.15,2013-06-27 04:17:00,
2013-06-26 21:22:00,61.8,56.9,30.04,ENE,76,0.0,1.0,84,0.00,,,0.30,0,Wunderground v.1.15,2013-06-27 04:22:00,
2013-06-26 21:27:00,61.6,56.7,30.04,ENE,76,0.0,1.0,84,0.00,,,0.30,0,Wunderground v.1.15,2013-06-27 04:27:00,
2013-06-26 21:32:00,61.5,56.6,30.05,ENE,76,0.0,0.0,84,0.00,,,0.30,0,Wunderground v.1.15,2013-06-27 04:32:00,
2013-06-26 21:37:00,61.3,56.4,30.05,SE,126,0.0,2.0,84,0.00,,,0.30,0,Wunderground v.1.15,2013-06-27 04:37:00,
2013-06-26 21:42:00,61.2,56.3,30.05,SE,127,1.0,1.0,84,0.00,,,0.30,0,Wunderground v.1.15,2013-06-27 04:42:00,
2013-06-26 21:47:00,61.0,56.1,30.05,SE,127,0.0,1.0,84,0.00,,,0.30,0,Wunderground v.1.15,2013-06-27 04:47:00,
2013-06-26 21:52:00,60.9,56.4,30.05,SE,127,2.0,2.0,85,0.00,,,0.30,0,Wunderground v.1.15,2013-06-27 04:52:00,
2013-06-26 21:57:00,60.7,56.5,30.05,SE,127,0.0,2.0,86,0.00,,,0.30,0,Wunderground v.1.15,2013-06-27 04:57:00,
2013-06-26 22:02:00,60.7,56.5,30.05,SE,127,2.0,2.0,86,0.00,,,0.30,0,Wunderground v.1.15,2013-06-27 05:02:00,
2013-06-26 22:07:00,60.5,56.6,30.05,SE,127,0.0,2.0,87,0.00,,,0.30,0,Wunderground v.1.15,2013-06-27 05:07:00,
2013-06-26 22:12:00,60.5,56.6,30.05,SE,127,0.0,1.0,87,0.00,,,0.30,0,Wunderground v.1.15,2013-06-27 05:12:00,
2013-06-26 22:17:00,60.4,56.8,30.05,SE,127,0.0,1.0,88,0.00,,,0.30,0,Wunderground v.1.15,2013-06-27 05:17:00,
2013-06-26 22:22:00,60.4,56.8,30.05,SE,127,0.0,1.0,88,0.00,,,0.30,0,Wunderground v.1.15,2013-06-27 05:22:00,
2013-06-26 22:27:00,60.2,56.6,30.05,SE,127,0.0,1.0,88,0.00,,,0.30,0,Wunderground v.1.15,2013-06-27 05:27:00,
2013-06-26 22:32:00,60.1,56.8,30.05,SE,127,0.0,0.0,89,0.00,,,0.30,0,Wunderground v.1.15,2013-06-27 05:32:00,
2013-06-26 22:37:00,59.9,56.6,30.05,SE,127,0.0,1.0,89,0.00,,,0.30,0,Wunderground v.1.15,2013-06-27 05:37:00,
2013-06-26 22:42:00,59.8,56.6,30.05,SE,127,0.0,0.0,89,0.00,,,0.30,0,Wunderground v.1.15,2013-06-27 05:42:00,
2013-06-26 22:47:00,59.6,56.4,30.05,SE,127,0.0,1.0,89,0.00,,,0.30,0,Wunderground v.1.15,2013-06-27 05:47:00,
2013-06-26 22:52:00,59.5,56.6,30.05,SE,127,0.0,1.0,90,0.00,,,0.30,0,Wunderground v.1.15,2013-06-27 05:52:00,
2013-06-26 22:57:00,59.3,56.4,30.05,SE,127,0.0,2.0,90,0.00,,,0.30,0,Wunderground v.1.15,2013-06-27 05:57:00,
2013-06-26 23:02:00,59.3,56.4,30.05,SE,127,0.0,0.0,90,0.00,,,0.30,0,Wunderground v.1.15,2013-06-27 06:02:00,
2013-06-26 23:07:00,59.2,56.3,30.05,SE,127,0.0,1.0,90,0.00,,,0.30,0,Wunderground v.1.15,2013-06-27 06:07:00,
2013-06-26 23:12:00,59.2,56.3,30.05,SE,127,1.0,1.0,90,0.00,,,0.30,0,Wunderground v.1.15,2013-06-27 06:12:00,
2013-06-26 23:17:00,59.2,56.3,30.05,SE,127,0.0,1.0,90,0.00,,,0.30,0,Wunderground v.1.15,2013-06-27 06:17:00,
2013-06-26 23:22:00,59.2,56.6,30.05,SE,127,0.0,0.0,91,0.00,,,0.30,0,Wunderground v.1.15,2013-06-27 06:22:00,
2013-06-26 23:27:00,59.0,56.4,30.05,SE,127,0.0,1.0,91,0.00,,,0.30,0,Wunderground v.1.15,2013-06-27 06:27:00,
2013-06-26 23:32:00,59.0,56.4,30.06,SE,127,0.0,1.0,91,0.00,,,0.30,0,Wunderground v.1.15,2013-06-27 06:32:00,
2013-06-26 23:37:00,59.0,56.4,30.06,SE,127,0.0,1.0,91,0.00,,,0.30,0,Wunderground v.1.15,2013-06-27 06:37:00,
2013-06-26 23:42:00,59.0,56.7,30.06,SE,127,0.0,0.0,92,0.00,,,0.30,0,Wunderground v.1.15,2013-06-27 06:42:00,
2013-06-26 23:47:00,59.0,56.7,30.06,SE,127,0.0,0.0,92,0.00,,,0.30,0,Wunderground v.1.15,2013-06-27 06:47:00,
2013-06-26 23:52:00,58.9,56.6,30.06,SE,127,0.0,0.0,92,0.00,,,0.30,0,Wunderground v.1.15,2013-06-27 06:52:00,
2013-06-26 23:57:00,58.9,56.6,30.06,SE,127,0.0,1.0,92,0.00,,,0.30,0,Wunderground v.1.15,2013-06-27 06:57:00,